Location: Waco, TX
(31.5480°N, 97.1670°W)
Time: 08:44:32
(UTC-05:00)

ISS - Pass Details

Date: 13 June 2018
Orbit: 402 x 406 km, 51.6° (Epoch: 18 June)

Event Time Altitude Azimuth Distance (km) Brightness Sun altitude
Rises 20:42:02 0° 307° (NW) 2,317 2.6 -2.2°
Reaches altitude 10° 20:44:11 10° 300° (WNW) 1,454 1.1 -2.6°
Maximum altitude 20:47:16 39° 229° (SW) 612 -2.7 -3.2°
Drops below altitude 10° 20:50:19 10° 158° (SSE) 1,444 -1.5 -3.8°
Enters shadow 20:52:04 - 152° (SSE) 2,144 -0.7 -4.1°
Sets 20:52:27 0° 151° (SSE) 2,299 - -4.2°
